Year,Month,Day,Hour,Minute,Value (Times are PST for temperature in C)
2016,08,20,00,00,20.20
2016,08,20,00,01,20.20
2016,08,20,00,02,20.20
2016,08,20,00,03,20.20
2016,08,20,00,04,20.10
2016,08,20,00,05,20.10
2016,08,20,00,06,20.20
2016,08,20,00,07,20.10
2016,08,20,00,08,20.10
2016,08,20,00,09,20.10
2016,08,20,00,10,20.10
2016,08,20,00,11,20.10
2016,08,20,00,12,20.10
2016,08,20,00,13,20.10
2016,08,20,00,14,20.10
2016,08,20,00,15,20.10
2016,08,20,00,16,20.10
2016,08,20,00,17,20.10
2016,08,20,00,18,20.10
2016,08,20,00,19,20.00
2016,08,20,00,20,20.00
2016,08,20,00,21,20.00
2016,08,20,00,22,19.90
2016,08,20,00,23,19.90
2016,08,20,00,24,19.90
2016,08,20,00,25,19.90
2016,08,20,00,26,19.80
2016,08,20,00,27,19.80
2016,08,20,00,28,19.80
2016,08,20,00,29,19.80
2016,08,20,00,30,19.80
2016,08,20,00,31,19.80
2016,08,20,00,32,19.80
2016,08,20,00,33,19.70
2016,08,20,00,34,19.70
2016,08,20,00,35,19.70
2016,08,20,00,36,19.70
2016,08,20,00,37,19.60
2016,08,20,00,38,19.60
2016,08,20,00,39,19.60
2016,08,20,00,40,19.60
2016,08,20,00,41,19.60
2016,08,20,00,42,19.60
2016,08,20,00,43,19.50
2016,08,20,00,44,19.50
2016,08,20,00,45,19.40
2016,08,20,00,46,19.40
2016,08,20,00,47,19.40
2016,08,20,00,48,19.30
2016,08,20,00,49,19.30
2016,08,20,00,50,19.30
2016,08,20,00,51,19.20
2016,08,20,00,52,19.20
2016,08,20,00,53,19.20
2016,08,20,00,54,19.20
2016,08,20,00,55,19.10
2016,08,20,00,56,19.10
2016,08,20,00,57,19.10
2016,08,20,00,58,19.00
2016,08,20,00,59,19.00
2016,08,20,01,00,19.00
2016,08,20,01,01,18.90
2016,08,20,01,02,18.90
2016,08,20,01,03,18.90
2016,08,20,01,04,18.90
2016,08,20,01,05,18.90
2016,08,20,01,06,18.80
2016,08,20,01,07,18.80
2016,08,20,01,08,18.80
2016,08,20,01,09,18.80
2016,08,20,01,10,18.70
2016,08,20,01,11,18.70
2016,08,20,01,12,18.70
2016,08,20,01,13,18.70
2016,08,20,01,14,18.60
2016,08,20,01,15,18.60
2016,08,20,01,16,18.60
2016,08,20,01,17,18.60
2016,08,20,01,18,18.60
2016,08,20,01,19,18.60
2016,08,20,01,20,18.60
2016,08,20,01,21,18.60
2016,08,20,01,22,18.60
2016,08,20,01,23,18.50
2016,08,20,01,24,18.50
2016,08,20,01,25,18.50
2016,08,20,01,26,18.50
2016,08,20,01,27,18.50
2016,08,20,01,28,18.50
2016,08,20,01,29,18.50
2016,08,20,01,30,18.50
2016,08,20,01,31,18.50
2016,08,20,01,32,18.50
2016,08,20,01,33,18.60
2016,08,20,01,34,18.60
2016,08,20,01,35,18.60
2016,08,20,01,36,18.60
2016,08,20,01,37,18.60
2016,08,20,01,38,18.60
2016,08,20,01,39,18.60
2016,08,20,01,40,18.60
2016,08,20,01,41,18.50
2016,08,20,01,42,18.50
2016,08,20,01,43,18.50
2016,08,20,01,44,18.50
2016,08,20,01,45,18.40
2016,08,20,01,46,18.40
2016,08,20,01,47,18.40
2016,08,20,01,48,18.40
2016,08,20,01,49,18.40
2016,08,20,01,50,18.40
2016,08,20,01,51,18.50
2016,08,20,01,52,18.50
2016,08,20,01,53,18.50
2016,08,20,01,54,18.50
2016,08,20,01,55,18.50
2016,08,20,01,56,18.50
2016,08,20,01,57,18.50
2016,08,20,01,58,18.60
2016,08,20,01,59,18.60
2016,08,20,02,00,18.70
2016,08,20,02,01,18.70
2016,08,20,02,02,18.70
2016,08,20,02,03,18.80
2016,08,20,02,04,18.80
2016,08,20,02,05,18.80
2016,08,20,02,06,18.90
2016,08,20,02,07,18.90
2016,08,20,02,08,18.90
2016,08,20,02,09,18.90
2016,08,20,02,10,19.00
2016,08,20,02,11,19.00
2016,08,20,02,12,19.00
2016,08,20,02,13,19.00
2016,08,20,02,14,19.00
2016,08,20,02,15,19.10
2016,08,20,02,16,19.10
2016,08,20,02,17,19.10
2016,08,20,02,18,19.10
2016,08,20,02,19,19.10
2016,08,20,02,20,19.10
2016,08,20,02,21,19.10
2016,08,20,02,22,19.10
2016,08,20,02,23,19.10
2016,08,20,02,24,19.00
2016,08,20,02,25,19.10
2016,08,20,02,26,19.10
2016,08,20,02,27,19.10
2016,08,20,02,28,19.10
2016,08,20,02,29,19.10
2016,08,20,02,30,19.10
2016,08,20,02,31,19.10
2016,08,20,02,32,19.00
2016,08,20,02,33,19.00
2016,08,20,02,34,19.00
2016,08,20,02,35,19.00
2016,08,20,02,36,19.00
2016,08,20,02,37,19.00
2016,08,20,02,38,19.00
2016,08,20,02,39,18.90
2016,08,20,02,40,18.90
2016,08,20,02,41,18.90
2016,08,20,02,42,18.90
2016,08,20,02,43,18.90
2016,08,20,02,44,18.90
2016,08,20,02,45,18.90
2016,08,20,02,46,18.90
2016,08,20,02,47,18.80
2016,08,20,02,48,18.80
2016,08,20,02,49,18.80
2016,08,20,02,50,18.80
2016,08,20,02,51,18.80
2016,08,20,02,52,18.70
2016,08,20,02,53,18.70
2016,08,20,02,54,18.70
2016,08,20,02,55,18.70
2016,08,20,02,56,18.70
2016,08,20,02,57,18.70
2016,08,20,02,58,18.70
2016,08,20,02,59,18.70
2016,08,20,03,00,18.70
2016,08,20,03,01,18.70
2016,08,20,03,02,18.70
2016,08,20,03,03,18.70
2016,08,20,03,04,18.60
2016,08,20,03,05,18.60
2016,08,20,03,06,18.60
2016,08,20,03,07,18.60
2016,08,20,03,08,18.60
2016,08,20,03,09,18.50
2016,08,20,03,10,18.50
2016,08,20,03,11,18.50
2016,08,20,03,12,18.40
2016,08,20,03,13,18.40
2016,08,20,03,14,18.40
2016,08,20,03,15,18.30
2016,08,20,03,16,18.30
2016,08,20,03,17,18.30
2016,08,20,03,18,18.30
2016,08,20,03,19,18.30
2016,08,20,03,20,18.20
2016,08,20,03,21,18.20
2016,08,20,03,22,18.20
2016,08,20,03,23,18.10
2016,08,20,03,24,18.10
2016,08,20,03,25,18.10
2016,08,20,03,26,18.00
2016,08,20,03,27,18.00
2016,08,20,03,28,17.90
2016,08,20,03,29,17.90
2016,08,20,03,30,17.90
2016,08,20,03,31,17.80
2016,08,20,03,32,17.80
2016,08,20,03,33,17.80
2016,08,20,03,34,17.70
2016,08,20,03,35,17.70
2016,08,20,03,36,17.70
2016,08,20,03,37,17.70
2016,08,20,03,38,17.60
2016,08,20,03,39,17.60
2016,08,20,03,40,17.60
2016,08,20,03,41,17.50
2016,08,20,03,42,17.50
2016,08,20,03,43,17.50
2016,08,20,03,44,17.40
2016,08,20,03,45,17.40
2016,08,20,03,46,17.40
2016,08,20,03,47,17.30
2016,08,20,03,48,17.30
2016,08,20,03,49,17.30
2016,08,20,03,50,17.30
2016,08,20,03,51,17.30
2016,08,20,03,52,17.30
2016,08,20,03,53,17.20
2016,08,20,03,54,17.20
2016,08,20,03,55,17.20
2016,08,20,03,56,17.20
2016,08,20,03,57,17.20
2016,08,20,03,58,17.20
2016,08,20,03,59,17.20
2016,08,20,04,00,17.20
2016,08,20,04,01,17.20
2016,08,20,04,02,17.20
2016,08,20,04,03,17.20
2016,08,20,04,04,17.20
2016,08,20,04,05,17.20
2016,08,20,04,06,17.20
2016,08,20,04,07,17.20
2016,08,20,04,08,17.20
2016,08,20,04,09,17.20
2016,08,20,04,10,17.20
2016,08,20,04,11,17.20
2016,08,20,04,12,17.20
2016,08,20,04,13,17.20
2016,08,20,04,14,17.20
2016,08,20,04,15,17.20
2016,08,20,04,16,17.20
2016,08,20,04,17,17.20
2016,08,20,04,18,17.20
2016,08,20,04,19,17.20
2016,08,20,04,20,17.20
2016,08,20,04,21,17.20
2016,08,20,04,22,17.20
2016,08,20,04,23,17.20
2016,08,20,04,24,17.10
2016,08,20,04,25,17.10
2016,08,20,04,26,17.10
2016,08,20,04,27,17.10
2016,08,20,04,28,17.10
2016,08,20,04,29,17.10
2016,08,20,04,30,17.10
2016,08,20,04,31,17.10
2016,08,20,04,32,17.10
2016,08,20,04,33,17.00
2016,08,20,04,34,17.00
2016,08,20,04,35,17.00
2016,08,20,04,36,17.00
2016,08,20,04,37,17.00
2016,08,20,04,38,16.90
2016,08,20,04,39,16.90
2016,08,20,04,40,16.90
2016,08,20,04,41,16.90
2016,08,20,04,42,16.90
2016,08,20,04,43,16.90
2016,08,20,04,44,16.80
2016,08,20,04,45,16.80
2016,08,20,04,46,16.80
2016,08,20,04,47,16.80
2016,08,20,04,48,16.80
2016,08,20,04,49,16.80
2016,08,20,04,50,16.80
2016,08,20,04,51,16.70
2016,08,20,04,52,16.70
2016,08,20,04,53,16.70
2016,08,20,04,54,16.70
2016,08,20,04,55,16.70
2016,08,20,04,56,16.70
2016,08,20,04,57,16.70
2016,08,20,04,58,16.70
2016,08,20,04,59,16.70
2016,08,20,05,00,16.70
2016,08,20,05,01,16.80
2016,08,20,05,02,16.80
2016,08,20,05,03,16.80
2016,08,20,05,04,16.80
2016,08,20,05,05,16.80
2016,08,20,05,06,16.80
2016,08,20,05,07,16.80
2016,08,20,05,08,16.80
2016,08,20,05,09,16.80
2016,08,20,05,10,16.80
2016,08,20,05,11,16.80
2016,08,20,05,12,16.80
2016,08,20,05,13,16.80
2016,08,20,05,14,16.80
2016,08,20,05,15,16.80
2016,08,20,05,16,16.70
2016,08,20,05,17,16.70
2016,08,20,05,18,16.70
2016,08,20,05,19,16.70
2016,08,20,05,20,16.70
2016,08,20,05,21,16.60
2016,08,20,05,22,16.60
2016,08,20,05,23,16.60
2016,08,20,05,24,16.60
2016,08,20,05,25,16.50
2016,08,20,05,26,16.50
2016,08,20,05,27,16.50
2016,08,20,05,28,16.40
2016,08,20,05,29,16.40
2016,08,20,05,30,16.40
2016,08,20,05,31,16.40
2016,08,20,05,32,16.40
2016,08,20,05,33,16.40
2016,08,20,05,34,16.30
2016,08,20,05,35,16.30
2016,08,20,05,36,16.30
2016,08,20,05,37,16.30
2016,08,20,05,38,16.30
2016,08,20,05,39,16.20
2016,08,20,05,40,16.20
2016,08,20,05,41,16.20
2016,08,20,05,42,16.20
2016,08,20,05,43,16.20
2016,08,20,05,44,16.20
2016,08,20,05,45,16.20
2016,08,20,05,46,16.20
2016,08,20,05,47,16.30
2016,08,20,05,48,16.30
2016,08,20,05,49,16.30
2016,08,20,05,50,16.30
2016,08,20,05,51,16.30
2016,08,20,05,52,16.30
2016,08,20,05,53,16.30
2016,08,20,05,54,16.40
2016,08,20,05,55,16.40
2016,08,20,05,56,16.40
2016,08,20,05,57,16.40
2016,08,20,05,58,16.40
2016,08,20,05,59,16.40
2016,08,20,06,00,16.40
2016,08,20,06,01,16.40
2016,08,20,06,02,16.50
2016,08,20,06,03,16.50
2016,08,20,06,04,16.50
2016,08,20,06,05,16.50
2016,08,20,06,06,16.50
2016,08,20,06,07,16.50
2016,08,20,06,08,16.50
2016,08,20,06,09,16.40
2016,08,20,06,10,16.40
2016,08,20,06,11,16.40
2016,08,20,06,12,16.40
2016,08,20,06,13,16.40
2016,08,20,06,14,16.40
2016,08,20,06,15,16.40
2016,08,20,06,16,16.40
2016,08,20,06,17,16.30
2016,08,20,06,18,16.30
2016,08,20,06,19,16.30
2016,08,20,06,20,16.30
2016,08,20,06,21,16.30
2016,08,20,06,22,16.30
2016,08,20,06,23,16.30
2016,08,20,06,24,16.30
2016,08,20,06,25,16.20
2016,08,20,06,26,16.20
2016,08,20,06,27,16.20
2016,08,20,06,28,16.20
2016,08,20,06,29,16.20
2016,08,20,06,30,16.20
2016,08,20,06,31,16.20
2016,08,20,06,32,16.20
2016,08,20,06,33,16.20
2016,08,20,06,34,16.20
2016,08,20,06,35,16.20
2016,08,20,06,36,16.20
2016,08,20,06,37,16.20
2016,08,20,06,38,16.20
2016,08,20,06,39,16.20
2016,08,20,06,40,16.20
2016,08,20,06,41,16.20
2016,08,20,06,42,16.20
2016,08,20,06,43,16.20
2016,08,20,06,44,16.30
2016,08,20,06,45,16.30
2016,08,20,06,46,16.30
2016,08,20,06,47,16.30
2016,08,20,06,48,16.30
2016,08,20,06,49,16.30
2016,08,20,06,50,16.30
2016,08,20,06,51,16.30
2016,08,20,06,52,16.30
2016,08,20,06,53,16.40
2016,08,20,06,54,16.40
2016,08,20,06,55,16.40
2016,08,20,06,56,16.40
2016,08,20,06,57,16.40
2016,08,20,06,58,16.40
2016,08,20,06,59,16.40
2016,08,20,07,00,16.40
2016,08,20,07,01,16.40
2016,08,20,07,02,16.40
2016,08,20,07,03,16.40
2016,08,20,07,04,16.40
2016,08,20,07,05,16.40
2016,08,20,07,06,16.40
2016,08,20,07,07,16.40
2016,08,20,07,08,16.40
2016,08,20,07,09,16.40
2016,08,20,07,10,16.40
2016,08,20,07,11,16.40
2016,08,20,07,12,16.40
2016,08,20,07,13,16.40
2016,08,20,07,14,16.40
2016,08,20,07,15,16.50
2016,08,20,07,16,16.50
2016,08,20,07,17,16.50
2016,08,20,07,18,16.50
2016,08,20,07,19,16.60
2016,08,20,07,20,16.60
2016,08,20,07,21,16.60
2016,08,20,07,22,16.60
2016,08,20,07,23,16.60
2016,08,20,07,24,16.60
2016,08,20,07,25,16.70
2016,08,20,07,26,16.70
2016,08,20,07,27,16.70
2016,08,20,07,28,16.80
2016,08,20,07,29,16.80
2016,08,20,07,30,16.80
2016,08,20,07,31,16.80
2016,08,20,07,32,16.90
2016,08,20,07,33,16.90
2016,08,20,07,34,16.90
2016,08,20,07,35,16.90
2016,08,20,07,36,17.00
2016,08,20,07,37,17.00
2016,08,20,07,38,17.00
2016,08,20,07,39,17.10
2016,08,20,07,40,17.10
2016,08,20,07,41,17.20
2016,08,20,07,42,17.20
2016,08,20,07,43,17.20
2016,08,20,07,44,17.30
2016,08,20,07,45,17.30
2016,08,20,07,46,17.40
2016,08,20,07,47,17.40
2016,08,20,07,48,17.40
2016,08,20,07,49,17.50
2016,08,20,07,50,17.60
2016,08,20,07,51,17.60
2016,08,20,07,52,17.60
2016,08,20,07,53,17.70
2016,08,20,07,54,17.70
2016,08,20,07,55,17.70
2016,08,20,07,56,17.80
2016,08,20,07,57,17.80
2016,08,20,07,58,17.90
2016,08,20,07,59,17.90
2016,08,20,08,00,17.90
2016,08,20,08,01,17.90
2016,08,20,08,02,18.00
2016,08,20,08,03,18.00
2016,08,20,08,04,18.00
2016,08,20,08,05,18.00
2016,08,20,08,06,18.00
2016,08,20,08,07,18.10
2016,08,20,08,08,18.10
2016,08,20,08,09,18.10
2016,08,20,08,10,18.20
2016,08,20,08,11,18.20
2016,08,20,08,12,18.20
2016,08,20,08,13,18.20
2016,08,20,08,14,18.30
2016,08,20,08,15,18.30
2016,08,20,08,16,18.30
2016,08,20,08,17,18.30
2016,08,20,08,18,18.30
2016,08,20,08,19,18.30
2016,08,20,08,20,18.40
2016,08,20,08,21,18.40
2016,08,20,08,22,18.40
2016,08,20,08,23,18.40
2016,08,20,08,24,18.40
2016,08,20,08,25,18.40
2016,08,20,08,26,18.40
2016,08,20,08,27,18.40
2016,08,20,08,28,18.40
2016,08,20,08,29,18.40
2016,08,20,08,30,18.40
2016,08,20,08,31,18.40
2016,08,20,08,32,18.50
2016,08,20,08,33,18.50
2016,08,20,08,34,18.50
2016,08,20,08,35,18.50
2016,08,20,08,36,18.50
2016,08,20,08,37,18.50
2016,08,20,08,38,18.50
2016,08,20,08,39,18.60
2016,08,20,08,40,18.60
2016,08,20,08,41,18.70
2016,08,20,08,42,18.70
2016,08,20,08,43,18.70
2016,08,20,08,44,18.70
2016,08,20,08,45,18.80
2016,08,20,08,46,18.80
2016,08,20,08,47,18.80
2016,08,20,08,48,18.90
2016,08,20,08,49,18.90
2016,08,20,08,50,18.90
2016,08,20,08,51,18.90
2016,08,20,08,52,18.90
2016,08,20,08,53,18.90
2016,08,20,08,54,18.90
2016,08,20,08,55,19.00
2016,08,20,08,56,19.00
2016,08,20,08,57,19.00
2016,08,20,08,58,19.10
2016,08,20,08,59,19.10
2016,08,20,09,00,19.20
2016,08,20,09,01,19.20
2016,08,20,09,02,19.30
2016,08,20,09,03,19.30
2016,08,20,09,04,19.30
2016,08,20,09,05,19.30
2016,08,20,09,06,19.30
2016,08,20,09,07,19.40
2016,08,20,09,08,19.40
2016,08,20,09,09,19.40
2016,08,20,09,10,19.40
2016,08,20,09,11,19.40
2016,08,20,09,12,19.40
2016,08,20,09,13,19.40
2016,08,20,09,14,19.40
2016,08,20,09,15,19.50
2016,08,20,09,16,19.50
2016,08,20,09,17,19.60
2016,08,20,09,18,19.60
2016,08,20,09,19,19.60
2016,08,20,09,20,19.60
2016,08,20,09,21,19.70
2016,08,20,09,22,19.80
2016,08,20,09,23,19.80
2016,08,20,09,24,19.80
2016,08,20,09,25,19.90
2016,08,20,09,26,19.90
2016,08,20,09,27,19.80
2016,08,20,09,28,19.80
2016,08,20,09,29,19.80
2016,08,20,09,30,19.80
2016,08,20,09,31,19.80
2016,08,20,09,32,19.80
2016,08,20,09,33,19.90
2016,08,20,09,34,19.90
2016,08,20,09,35,20.00
2016,08,20,09,36,20.00
2016,08,20,09,37,20.10
2016,08,20,09,38,20.10
2016,08,20,09,39,20.10
2016,08,20,09,40,20.20
2016,08,20,09,41,20.20
2016,08,20,09,42,20.30
2016,08,20,09,43,20.30
2016,08,20,09,44,20.30
2016,08,20,09,45,20.30
2016,08,20,09,46,20.30
2016,08,20,09,47,20.40
2016,08,20,09,48,20.40
2016,08,20,09,49,20.50
2016,08,20,09,50,20.50
2016,08,20,09,51,20.50
2016,08,20,09,52,20.50
2016,08,20,09,53,20.50
2016,08,20,09,54,20.60
2016,08,20,09,55,20.50
2016,08,20,09,56,20.50
2016,08,20,09,57,20.40
2016,08,20,09,58,20.30
2016,08,20,09,59,20.30
2016,08,20,10,00,20.30
2016,08,20,10,01,20.30
2016,08,20,10,02,20.30
2016,08,20,10,03,20.30
2016,08,20,10,04,20.30
2016,08,20,10,05,20.40
2016,08,20,10,06,20.50
2016,08,20,10,07,20.50
2016,08,20,10,08,20.60
2016,08,20,10,09,20.60
2016,08,20,10,10,20.70
2016,08,20,10,11,20.80
2016,08,20,10,12,20.80
2016,08,20,10,13,20.90
2016,08,20,10,14,20.90
2016,08,20,10,15,20.90
2016,08,20,10,16,20.90
2016,08,20,10,17,20.90
2016,08,20,10,18,20.80
2016,08,20,10,19,20.80
2016,08,20,10,20,20.70
2016,08,20,10,21,20.60
2016,08,20,10,22,20.50
2016,08,20,10,23,20.40
2016,08,20,10,24,20.40
2016,08,20,10,25,20.40
2016,08,20,10,26,20.40
2016,08,20,10,27,20.50
2016,08,20,10,28,20.50
2016,08,20,10,29,20.60
2016,08,20,10,30,20.60
2016,08,20,10,31,20.50
2016,08,20,10,32,20.50
2016,08,20,10,33,20.50
2016,08,20,10,34,20.50
2016,08,20,10,35,20.40
2016,08,20,10,36,20.40
2016,08,20,10,37,20.40
2016,08,20,10,38,20.50
2016,08,20,10,39,20.60
2016,08,20,10,40,20.70
2016,08,20,10,41,20.70
2016,08,20,10,42,20.70
2016,08,20,10,43,20.70
2016,08,20,10,44,20.80
2016,08,20,10,45,20.80
2016,08,20,10,46,20.80
2016,08,20,10,47,20.80
2016,08,20,10,48,20.80
2016,08,20,10,49,20.80
2016,08,20,10,50,20.90
2016,08,20,10,51,20.90
2016,08,20,10,52,20.90
2016,08,20,10,53,21.00
2016,08,20,10,54,21.00
2016,08,20,10,55,21.00
2016,08,20,10,56,21.10
2016,08,20,10,57,21.10
2016,08,20,10,58,21.20
2016,08,20,10,59,21.20
2016,08,20,11,00,21.30
2016,08,20,11,01,21.40
2016,08,20,11,02,21.40
2016,08,20,11,03,21.40
2016,08,20,11,04,21.30
2016,08,20,11,05,21.30
2016,08,20,11,06,21.30
2016,08,20,11,07,21.40
2016,08,20,11,08,21.50
2016,08,20,11,09,21.60
2016,08,20,11,10,21.70
2016,08,20,11,11,21.80
2016,08,20,11,12,21.80
2016,08,20,11,13,21.90
2016,08,20,11,14,21.90
2016,08,20,11,15,21.90
2016,08,20,11,16,22.00
2016,08,20,11,17,22.00
2016,08,20,11,18,22.10
2016,08,20,11,19,22.10
2016,08,20,11,20,22.20
2016,08,20,11,21,22.20
2016,08,20,11,22,22.20
2016,08,20,11,23,22.20
2016,08,20,11,24,22.20
2016,08,20,11,25,22.10
2016,08,20,11,26,22.10
2016,08,20,11,27,22.10
2016,08,20,11,28,22.10
2016,08,20,11,29,22.10
2016,08,20,11,30,22.00
2016,08,20,11,31,22.10
2016,08,20,11,32,22.00
2016,08,20,11,33,22.00
2016,08,20,11,34,22.00
2016,08,20,11,35,22.00
2016,08,20,11,36,22.10
2016,08,20,11,37,22.10
2016,08,20,11,38,22.20
2016,08,20,11,39,22.20
2016,08,20,11,40,22.20
2016,08,20,11,41,22.10
2016,08,20,11,42,22.00
2016,08,20,11,43,22.00
2016,08,20,11,44,21.90
2016,08,20,11,45,21.80
2016,08,20,11,46,21.80
2016,08,20,11,47,21.80
2016,08,20,11,48,21.90
2016,08,20,11,49,22.00
2016,08,20,11,50,22.00
2016,08,20,11,51,22.10
2016,08,20,11,52,22.20
2016,08,20,11,53,22.20
2016,08,20,11,54,22.20
2016,08,20,11,55,22.30
2016,08,20,11,56,22.30
2016,08,20,11,57,22.30
2016,08,20,11,58,22.30
2016,08,20,11,59,22.30
2016,08,20,12,00,22.30
2016,08,20,12,01,22.30
2016,08,20,12,02,22.30
2016,08,20,12,03,22.20
2016,08,20,12,04,22.20
2016,08,20,12,05,22.30
2016,08,20,12,06,22.30
2016,08,20,12,07,22.30
2016,08,20,12,08,22.40
2016,08,20,12,09,22.40
2016,08,20,12,10,22.40
2016,08,20,12,11,22.40
2016,08,20,12,12,22.40
2016,08,20,12,13,22.40
2016,08,20,12,14,22.50
2016,08,20,12,15,22.50
2016,08,20,12,16,22.50
2016,08,20,12,17,22.50
2016,08,20,12,18,22.50
2016,08,20,12,19,22.60
2016,08,20,12,20,22.60
2016,08,20,12,21,22.70
2016,08,20,12,22,22.70
2016,08,20,12,23,22.70
2016,08,20,12,24,22.70
2016,08,20,12,25,22.70
2016,08,20,12,26,22.70
2016,08,20,12,27,22.80
2016,08,20,12,28,22.80
2016,08,20,12,29,22.80
2016,08,20,12,30,22.90
2016,08,20,12,31,22.90
2016,08,20,12,32,23.00
2016,08,20,12,33,23.10
2016,08,20,12,34,23.10
2016,08,20,12,35,23.00
2016,08,20,12,36,23.00
2016,08,20,12,37,22.90
2016,08,20,12,38,22.80
2016,08,20,12,39,22.80
2016,08,20,12,40,22.80
2016,08,20,12,41,22.80
2016,08,20,12,42,22.90
2016,08,20,12,43,22.90
2016,08,20,12,44,22.90
2016,08,20,12,45,22.90
2016,08,20,12,46,23.00
2016,08,20,12,47,23.10
2016,08,20,12,48,23.20
2016,08,20,12,49,23.30
2016,08,20,12,50,23.30
2016,08,20,12,51,23.40
2016,08,20,12,52,23.50
2016,08,20,12,53,23.60
2016,08,20,12,54,23.70
2016,08,20,12,55,23.70
2016,08,20,12,56,23.70
2016,08,20,12,57,23.80
2016,08,20,12,58,23.90
2016,08,20,12,59,23.90
2016,08,20,13,00,23.90
2016,08,20,13,01,24.00
2016,08,20,13,02,23.90
2016,08,20,13,03,23.80
2016,08,20,13,04,23.90
2016,08,20,13,05,23.90
2016,08,20,13,06,24.00
2016,08,20,13,07,24.00
2016,08,20,13,08,24.10
2016,08,20,13,09,24.10
2016,08,20,13,10,24.10
2016,08,20,13,11,24.10
2016,08,20,13,12,24.10
2016,08,20,13,13,24.10
2016,08,20,13,14,24.10
2016,08,20,13,15,24.10
2016,08,20,13,16,24.10
2016,08,20,13,17,24.20
2016,08,20,13,18,24.20
2016,08,20,13,19,24.20
2016,08,20,13,20,24.20
2016,08,20,13,21,24.10
2016,08,20,13,22,24.10
2016,08,20,13,23,24.10
2016,08,20,13,24,24.10
2016,08,20,13,25,24.10
2016,08,20,13,26,24.10
2016,08,20,13,27,24.20
2016,08,20,13,28,24.30
2016,08,20,13,29,24.40
2016,08,20,13,30,24.40
2016,08,20,13,31,24.50
2016,08,20,13,32,24.60
2016,08,20,13,33,24.60
2016,08,20,13,34,24.70
2016,08,20,13,35,24.80
2016,08,20,13,36,24.80
2016,08,20,13,37,24.90
2016,08,20,13,38,24.90
2016,08,20,13,39,24.90
2016,08,20,13,40,25.00
2016,08,20,13,41,25.00
2016,08,20,13,42,25.10
2016,08,20,13,43,25.20
2016,08,20,13,44,25.20
2016,08,20,13,45,25.30
2016,08,20,13,46,25.30
2016,08,20,13,47,25.40
2016,08,20,13,48,25.40
2016,08,20,13,49,25.30
2016,08,20,13,50,25.20
2016,08,20,13,51,25.20
2016,08,20,13,52,25.10
2016,08,20,13,53,25.10
2016,08,20,13,54,25.00
2016,08,20,13,55,25.00
2016,08,20,13,56,24.90
2016,08,20,13,57,24.90
2016,08,20,13,58,24.90
2016,08,20,13,59,24.90
2016,08,20,14,00,24.90
2016,08,20,14,01,24.90
2016,08,20,14,02,24.80
2016,08,20,14,03,24.80
2016,08,20,14,04,24.80
2016,08,20,14,05,24.70
2016,08,20,14,06,24.70
2016,08,20,14,07,24.70
2016,08,20,14,08,24.70
2016,08,20,14,09,24.70
2016,08,20,14,10,24.70
2016,08,20,14,11,24.60
2016,08,20,14,12,24.60
2016,08,20,14,13,24.60
2016,08,20,14,14,24.60
2016,08,20,14,15,24.60
2016,08,20,14,16,24.70
2016,08,20,14,17,24.80
2016,08,20,14,18,24.80
2016,08,20,14,19,24.90
2016,08,20,14,20,24.90
2016,08,20,14,21,25.00
2016,08,20,14,22,25.00
2016,08,20,14,23,25.00
2016,08,20,14,24,25.00
2016,08,20,14,25,25.00
2016,08,20,14,26,25.00
2016,08,20,14,27,24.90
2016,08,20,14,28,24.90
2016,08,20,14,29,24.90
2016,08,20,14,30,24.90
2016,08,20,14,31,24.90
2016,08,20,14,32,24.90
2016,08,20,14,33,25.00
2016,08,20,14,34,25.10
2016,08,20,14,35,25.10
2016,08,20,14,36,25.10
2016,08,20,14,37,25.20
2016,08,20,14,38,25.30
2016,08,20,14,39,25.40
2016,08,20,14,40,25.50
2016,08,20,14,41,25.50
2016,08,20,14,42,25.60
2016,08,20,14,43,25.60
2016,08,20,14,44,25.70
2016,08,20,14,45,25.80
2016,08,20,14,46,25.80
2016,08,20,14,47,25.80
2016,08,20,14,48,25.80
2016,08,20,14,49,25.70
2016,08,20,14,50,25.70
2016,08,20,14,51,25.70
2016,08,20,14,52,25.70
2016,08,20,14,53,25.70
2016,08,20,14,54,25.60
2016,08,20,14,55,25.70
2016,08,20,14,56,25.70
2016,08,20,14,57,25.80
2016,08,20,14,58,25.80
2016,08,20,14,59,26.00
2016,08,20,15,00,26.10
2016,08,20,15,01,26.10
2016,08,20,15,02,26.10
2016,08,20,15,03,26.10
2016,08,20,15,04,26.10
2016,08,20,15,05,26.10
2016,08,20,15,06,26.10
2016,08,20,15,07,26.10
2016,08,20,15,08,26.10
2016,08,20,15,09,26.10
2016,08,20,15,10,26.10
2016,08,20,15,11,26.10
2016,08,20,15,12,26.20
2016,08,20,15,13,26.20
2016,08,20,15,14,26.20
2016,08,20,15,15,26.30
2016,08,20,15,16,26.30
2016,08,20,15,17,26.30
2016,08,20,15,18,26.20
2016,08,20,15,19,26.10
2016,08,20,15,20,26.10
2016,08,20,15,21,26.00
2016,08,20,15,22,26.00
2016,08,20,15,23,26.00
2016,08,20,15,24,26.10
2016,08,20,15,25,26.10
2016,08,20,15,26,26.20
2016,08,20,15,27,26.30
2016,08,20,15,28,26.30
2016,08,20,15,29,26.30
2016,08,20,15,30,26.20
2016,08,20,15,31,26.20
2016,08,20,15,32,26.20
2016,08,20,15,33,26.20
2016,08,20,15,34,26.30
2016,08,20,15,35,26.40
2016,08,20,15,36,26.50
2016,08,20,15,37,26.50
2016,08,20,15,38,26.60
2016,08,20,15,39,26.60
2016,08,20,15,40,26.60
2016,08,20,15,41,26.60
2016,08,20,15,42,26.60
2016,08,20,15,43,26.60
2016,08,20,15,44,26.60
2016,08,20,15,45,26.60
2016,08,20,15,46,26.60
2016,08,20,15,47,26.60
2016,08,20,15,48,26.70
2016,08,20,15,49,26.70
2016,08,20,15,50,26.70
2016,08,20,15,51,26.80
2016,08,20,15,52,26.80
2016,08,20,15,53,26.80
2016,08,20,15,54,26.90
2016,08,20,15,55,26.80
2016,08,20,15,56,26.80
2016,08,20,15,57,26.80
2016,08,20,15,58,26.80
2016,08,20,15,59,26.80
2016,08,20,16,00,26.80
2016,08,20,16,01,26.80
2016,08,20,16,02,26.70
2016,08,20,16,03,26.80
2016,08,20,16,04,26.80
2016,08,20,16,05,26.80
2016,08,20,16,06,26.80
2016,08,20,16,07,26.80
2016,08,20,16,08,26.80
2016,08,20,16,09,26.90
2016,08,20,16,10,26.90
2016,08,20,16,11,26.90
2016,08,20,16,12,26.90
2016,08,20,16,13,26.90
2016,08,20,16,14,27.00
2016,08,20,16,15,27.00
2016,08,20,16,16,27.10
2016,08,20,16,17,27.10
2016,08,20,16,18,27.00
2016,08,20,16,19,26.90
2016,08,20,16,20,26.90
2016,08,20,16,21,26.80
2016,08,20,16,22,26.80
2016,08,20,16,23,26.80
2016,08,20,16,24,26.80
2016,08,20,16,25,26.80
2016,08,20,16,26,26.90
2016,08,20,16,27,26.90
2016,08,20,16,28,27.00
2016,08,20,16,29,27.10
2016,08,20,16,30,27.10
2016,08,20,16,31,27.10
2016,08,20,16,32,27.20
2016,08,20,16,33,27.30
2016,08,20,16,34,27.30
2016,08,20,16,35,27.30
2016,08,20,16,36,27.40
2016,08,20,16,37,27.40
2016,08,20,16,38,27.40
2016,08,20,16,39,27.30
2016,08,20,16,40,27.30
2016,08,20,16,41,27.20
2016,08,20,16,42,27.20
2016,08,20,16,43,27.30
2016,08,20,16,44,27.30
2016,08,20,16,45,27.30
2016,08,20,16,46,27.30
2016,08,20,16,47,27.20
2016,08,20,16,48,27.20
2016,08,20,16,49,27.20
2016,08,20,16,50,27.20
2016,08,20,16,51,27.20
2016,08,20,16,52,27.20
2016,08,20,16,53,27.20
2016,08,20,16,54,27.20
2016,08,20,16,55,27.20
2016,08,20,16,56,27.30
2016,08,20,16,57,27.30
2016,08,20,16,58,27.30
2016,08,20,16,59,27.40
2016,08,20,17,00,27.40
2016,08,20,17,01,27.40
2016,08,20,17,02,27.50
2016,08,20,17,03,27.50
2016,08,20,17,04,27.60
2016,08,20,17,05,27.60
2016,08,20,17,06,27.60
2016,08,20,17,07,27.60
2016,08,20,17,08,27.60
2016,08,20,17,09,27.60
2016,08,20,17,10,27.60
2016,08,20,17,11,27.60
2016,08,20,17,12,27.60
2016,08,20,17,13,27.60
2016,08,20,17,14,27.60
2016,08,20,17,15,27.60
2016,08,20,17,16,27.60
2016,08,20,17,17,27.60
2016,08,20,17,18,27.60
2016,08,20,17,19,27.60